Regional Weather Roundup
Issued by NWS

Home | Current Version | Previous Version | Graphics & Text | Print | Product List | Glossary On
Versions: 1 2 3 4 5 6 7 8 9 10 11 12 13 14 15 16 17 18 19 20 21 22 23 24 25 26 27 28 29 30 31 32 33 34 35 36 37 38 39 40 41 42 43 44 45 46 47 48 49 50
000
ASUS45 KTFX 262319
RWRMT
MONTANA HOURLY WEATHER ROUNDUP
NATIONAL WEATHER SERVICE GREAT FALLS MT
419 PM MST THU FEB 26 2015

NOTE: "FAIR" INDICATES FEW OR NO CLOUDS BELOW 12000 FEET WITH NO
SIGNIFICANT WEATHER AND/OR OBSTRUCTIONS TO VISIBILITY.

* THESE STATIONS ARE NOT UNDER NWS QUALITY CONTROL. THEY DO NOT
   REPORT WEATHER SUCH AS PRECIPITATION OR FOG.

MTZ001>007-043-270000-
WEST OF THE DIVIDE
CITY           SKY/WX    TMP DP  RH WIND       PRES   REMARKS
KALISPELL      SUNNY     37  16  42 CALM      30.06F
MISSOULA       PTCLDY    37  16  42 E9        30.05F WCI  30
BUTTE          PTCLDY    23  12  63 S18       29.99F WCI   9
MULLAN PASS    CLOUDY    27  16  63 CALM      29.92F
* ANACONDA     PTCLDY    19  16  88 N6         N/A   WCI  11
* ESSEX        N/A       30  13  49 SE3        N/A
* EUREKA APT   PTSUNNY   41  14  33 S6        30.05F
* HAMILTON APT PTCLDY    37  16  42 NW7       30.00F WCI  32
* LIBBY APT    PTSUNNY   43  19  38 CALM      30.03F
* LINCOLN      N/A       29   8  41 NE7G12     N/A   WCI  22
* LOOKOUT PASS N/A       34  18  52 N/A        N/A
* POLSON       N/A       36  20  52 N3         N/A
* RONAN APT    SUNNY     36  21  54 W8         N/A   WCI  30
* SEELEY LAKE  N/A       36  11  35 W2         N/A
* THOMP F APT  PTCLDY    31   7  36 N7G17      N/A   WCI  24
$$

MTZ008-052>055-270000-
SOUTHWEST MONTANA
CITY           SKY/WX    TMP DP  RH WIND       PRES   REMARKS
BOZEMAN        CLOUDY    21  10  62 CALM      30.11F
DILLON         PTCLDY    27  12  53 NE13      29.99F WCI  16
* W YELLOWSTON PTCLDY    28   6  39 N6G11      N/A   WCI  21
* THREE FORKS  SUNNY     23  12  63 N/A        N/A
* BOULDER HILL N/A       16   6  64 N3         N/A
* MONIDA PASS  N/A       25   6  44 N12G17     N/A   WCI  14
* RAYNOLDS PAS N/A       11  10  96 N16        N/A   WCI  -6
* WHITEHALL    N/A       26   9  48 E11G20     N/A   WCI  16
* WISE RIVER   N/A       27  13  55 SE13G21    N/A   WCI  16
$$

MTZ009>010-012-014-046-048-049-054-270000-
EAST SLOPES AND CENTRAL MONTANA
CITY           SKY/WX    TMP DP  RH WIND       PRES   REMARKS
CUT BANK       CLOUDY    12   7  80 SE15      30.16F WCI  -4
GREAT FALLS    SUNNY     16   7  67 E12       30.19F WCI   3
HELENA         SUNNY     23   9  55 SE8       30.13F WCI  14
MALMSTROM AFB  SUNNY     14   9  80 E5        30.23F WCI   6
* CONRAD       SUNNY     14   7  73 E9         N/A   WCI   2
* DEARBORN     N/A       17   7  65 N/A        N/A
* EAST GLACIER N/A        8   5  87 SE6        N/A   WCI  -2
* MONARCH      N/A        9  -1  63 NE7        N/A   WCI  -2
* PENDROY      N/A       11   6  80 S12G19     N/A   WCI  -4
* ROGERS PASS  N/A       12   5  73 S2         N/A
* SWEET GRASS  N/A       12   5  73 S22G30     N/A   WCI  -7
* WHITE SULPH  N/A       18   2  49 NE6        N/A   WCI  10
$$

MTZ011-013-016-021-035-040-045-047-050-051-270000-
NORTH CENTRAL MONTANA
CITY           SKY/WX    TMP DP  RH WIND       PRES   REMARKS
HAVRE          SUNNY     19   1  45 SE10      30.32F WCI   8
LEWISTOWN      SUNNY     12   3  67 E12       30.20F WCI  -2
* N BAR RANCH  SUNNY     10   0  64 S7        30.22F WCI  -1
* CHINOOK      SUNNY     14   0  53 E13       30.37F
* FORT BENTON  SUNNY     18   7  62 E12G17    30.29F WCI   5
* CHESTER      N/A       15   3  59 SE9G18     N/A   WCI   3
* DENTON       N/A       14   1  56 SE11       N/A   WCI   1
* GEYSER       N/A       14   3  61 E10        N/A   WCI   1
* JUDITH GAP   N/A        9   3  76 SE13       N/A   WCI  -7
* LOMA         N/A       16   7  67 E12        N/A   WCI   3
$$

MTZ017>020-022>027-061-062-270000-
NORTHEAST MONTANA
CITY           SKY/WX    TMP DP  RH WIND       PRES   REMARKS
GLASGOW        SUNNY     12 -11  34 S10       30.46F WCI  -1
GLENDIVE       SUNNY     12  -6  44 NE3       30.46F
JORDAN         SUNNY     14  -4  44 SE7       30.41F WCI   4
SIDNEY         SUNNY     14  -2  49 N5        30.54F WCI   6
WOLF POINT     SUNNY     14  -6  40 CALM      30.50F
* BEAVER HILL  N/A       10  -6  48 NW4        N/A
* CIRCLE       N/A       16  -1  47 SE2G7      N/A
* LINDSAY DVD  N/A       11  -5  48 E6         N/A   WCI   1
* NAVAJO       N/A       11  -6  46 SW4        N/A
* PLENTYWOOD A SUNNY      7  -8  50 NE6       30.48F WCI  -4
* POPLAR APT   SUNNY     16  -6  37 CALM      30.51F
* SACO         N/A       13  -6  42 SE9        N/A   WCI   1
* SCOBEY APT   SUNNY     12  -8  40 N/A        N/A
$$

MTZ028>042-056>058-270000-
SOUTHCENTRAL AND SOUTHEAST MONTANA
CITY           SKY/WX    TMP DP  RH WIND       PRES   REMARKS
BAKER          SUNNY     12  -2  53 CALM      30.42S
BILLINGS       PTCLDY    14   1  56 SE12      30.28F
LIVINGSTON     SUNNY     12   3  67 E16       30.15F WCI  -5
MILES CITY     SUNNY     12  -4  48 S6        30.42F WCI   2
* BIG TIMBER A SUNNY     10   3  73 E8        30.19F WCI  -2
* FORSYTH APT  SUNNY     14  -2  49 SE6       30.41F WCI   5
* LAUREL APT   SUNNY     14  -2  49 NE8        N/A   WCI   3
* ROUNDUP APT  SUNNY     16   0  49 NE6        N/A   WCI   7
* ALZADA       N/A        7  -6  55 NW3        N/A
* HYSHAM       N/A       10  -5  50 E8         N/A   WCI  -2
* LAME DEER    N/A        3  -4  72 SE7        N/A   WCI  -9
* REED POINT   N/A       14   5  67 E6         N/A   WCI   5
$$

REGIONAL REPORTS...DAKOTAS
CITY           SKY/WX    TMP DP  RH WIND       PRES   REMARKS
WILLISTON      SUNNY      9  -6  50 NW7       30.53F WCI  -2
DICKINSON      SUNNY     10  -2  58 N6        30.43S
BEACH          SUNNY     10  -2  58 NW3       30.44S
CROSBY         SUNNY      3  -4  72 NW6       30.53F WCI  -8
TIOGA          SUNNY      5  -4  66 NW8       30.51F WCI  -8
WATFORD CITY   SUNNY      9  -4  55 NW6       30.49F WCI  -1
BISMARCK       SUNNY      9  -6  50 N12       30.53S WCI  -6
GRAND FORKS    SUNNY      9  -6  50 NW10      30.52S WCI  -5
FARGO          PTSUNNY    9  -2  61 NW9       30.53S WCI  -4
BUFFALO SD     SUNNY     10  -6  48 N5        30.34S WCI   1
RAPID CITY     SUNNY      9  -2  61 N12       30.39S WCI  -6
$$

REGIONAL REPORTS...WYOMING/IDAHO/WASHINGTON
CITY           SKY/WX    TMP DP  RH WIND       PRES   REMARKS
GILLETTE       SUNNY      9  -6  50 NE3       30.24F
SHERIDAN       CLOUDY    10   1  67 S6        30.27F
CODY           CLOUDY    10   7  88 NE10      30.12F WCI  -4
YELLOWSTONE LA PTCLDY    21  -2  36 VRB7      29.88F WCI  12
SALMON         PTSUNNY   39  18  43 CALM      29.94F
MULLAN PASS    CLOUDY    27  16  63 CALM      29.92S
SAND POINT     LGT RAIN  37  32  82 W3        30.05F
SPOKANE        CLOUDY    43  30  60 NE6       30.01F
$$

REGIONAL REPORTS...ALBERTA
CITY           SKY/WX    TMP DP  RH WIND       PRES   REMARKS
CALGARY        PTSUNNY   16   7  67 S18G26    30.09F
LETHBRIDGE     PTCLDY    18  10  71 S17       30.17F WCI   3
MEDICINE HAT   N/A       18   1  47 S12       30.32F WCI   5
EDMONTON       PTSUNNY   14   5  67 SE14      30.19F WCI  -1
WATERTON GATE  N/A       14   5  67 E6         N/A   WCI   5
CARDSTON       N/A       14   9  80 SE12G20    N/A
MILK RIVER     N/A       12   7  80 S21G28     N/A   WCI  -7
$$

REGIONAL REPORTS...SASKATCHEWAN
CITY           SKY/WX    TMP DP  RH WIND       PRES   REMARKS
SWIFT CURRENT  SUNNY      9  -2  61 S10       30.36F WCI  -5
MOOSE JAW      N/A        5  -8  54 S5        30.51F WCI  -5
REGINA         N/A       -2  -8  75 W7        30.52F WCI -15
VAL MARIE      N/A       14  -8  36 S12        N/A
ASSINIBOIA     N/A        5  -9  52 E5         N/A   WCI  -5
CORONACH       N/A       10  -4  53 E5         N/A   WCI   1

$$



USA.gov is the U.S. government's official web portal to all federal, state and local government web resources and services.